Theta_e
321 311 309 305 294 290 285 289 293 295 295 300 304 304 305 304 307 300 327 338 341 341 346 349 350 351 351 352 352 352 353 354 354 354 353 353 353 353 352 351 351 350 348 347 346 345 343 343 343
315 313 305 297 289 284 286 293 294 298 302 304 303 305 309 308 325 320 331 339 342 342 345 348 350 350 351 351 351 352 353 353 353 353 353 352 352 352 351 350 349 349 348 346 345 343 341 340 341
312 310 302 292 286 286 287 295 298 301 303 302 300 304 308 313 327 324 336 340 342 342 345 348 349 349 350 350 351 351 351 351 351 351 352 352 352 351 351 349 348 348 348 345 344 341 338 341 344
306 303 298 292 288 292 293 298 299 300 302 302 301 301 321 332 326 331 339 341 340 341 344 346 347 348 350 351 351 351 350 349 349 349 351 351 351 351 350 348 347 348 347 344 341 337 338 343 343
302 298 291 288 289 293 297 299 300 299 300 302 303 302 314 329 337 338 338 340 338 340 342 346 345 347 348 351 351 350 348 347 348 349 349 350 350 350 348 346 346 346 344 341 337 337 341 342 342
297 296 289 286 290 296 298 300 300 301 300 304 304 312 317 332 334 335 338 336 338 339 341 344 347 347 347 349 349 347 346 346 347 348 348 349 349 348 347 346 345 344 342 338 336 335 338 341 340
295 292 289 288 290 293 298 301 300 300 300 303 308 308 317 327 333 337 335 335 336 337 339 341 344 347 346 345 345 344 344 345 346 346 346 347 346 345 345 344 344 342 338 335 334 335 335 339 338
296 294 288 288 289 292 299 302 303 301 301 307 317 302 306 323 333 334 334 333 333 335 336 339 344 346 346 347 343 343 343 343 343 345 344 343 343 344 344 343 342 339 336 334 333 334 337 338 336
297 291 286 289 291 295 300 300 301 303 301 301 304 306 317 327 332 330 329 332 334 336 332 336 342 344 345 346 345 343 344 343 342 344 343 340 342 342 342 339 339 337 335 333 333 335 336 334 334
296 292 292 295 295 297 300 300 302 300 302 301 303 307 327 330 329 328 328 330 333 334 335 336 339 341 343 344 345 345 344 344 343 343 342 340 339 338 337 337 337 335 333 332 333 334 334 333 331
293 294 295 297 299 299 297 299 301 299 297 300 302 304 312 327 327 329 330 331 332 335 336 336 337 340 341 342 343 344 345 344 343 343 342 339 336 335 332 333 333 330 331 326 329 332 330 328 326
292 298 298 299 300 298 297 298 299 299 303 306 304 303 309 324 326 328 329 330 329 331 336 337 337 338 339 340 342 342 344 344 343 342 341 334 333 331 331 331 328 327 323 322 324 321 319 321 319
294 297 299 301 300 300 300 298 299 301 304 305 304 303 303 318 325 329 331 331 330 330 334 337 337 337 338 338 340 341 342 342 343 341 339 335 334 331 330 329 326 325 322 320 317 317 318 318 317
298 298 299 300 301 300 300 300 298 302 303 304 303 302 301 303 322 326 326 328 328 332 334 336 337 337 337 337 337 338 340 342 341 340 337 336 334 331 329 327 325 323 320 319 317 318 316 315 315
300 297 298 298 298 298 299 297 297 303 303 301 301 300 299 301 304 303 307 314 328 331 332 334 338 337 337 337 337 337 338 339 337 337 336 335 333 330 327 326 324 323 320 316 314 316 315 313 313
295 294 291 298 298 300 298 293 300 303 299 299 298 297 297 301 302 304 309 312 311 324 330 334 338 337 337 336 336 337 337 337 336 334 333 332 330 329 327 325 324 323 318 313 315 315 313 313 312
291 288 290 293 298 297 294 293 299 304 296 295 293 295 299 299 299 302 306 322 322 310 327 331 336 336 336 337 337 336 336 335 335 334 332 330 329 327 326 324 323 320 316 314 314 315 314 311 310
287 288 289 289 294 296 296 294 298 296 294 295 294 295 294 293 294 296 300 316 324 322 314 326 331 336 336 336 336 336 335 333 335 333 333 330 328 326 325 324 320 318 314 313 314 313 313 311 309
291 290 290 293 297 293 294 294 295 292 294 292 292 291 289 290 292 293 295 300 314 321 326 325 328 330 333 333 333 333 330 331 331 332 332 328 328 326 325 324 319 315 313 312 313 313 310 309 307
293 290 290 293 296 293 291 289 290 290 288 287 286 286 287 288 289 292 292 294 297 309 317 321 324 323 324 329 327 323 325 324 326 326 328 327 327 325 323 322 318 316 314 313 312 312 309 308 307
291 290 289 290 291 289 288 287 287 287 287 287 287 287 287 287 288 290 291 290 292 295 301 315 321 322 322 321 320 319 320 319 319 320 322 323 324 324 322 320 319 316 316 313 312 312 310 305 307
288 295 293 290 287 283 288 284 287 285 285 286 286 286 286 287 288 290 290 291 290 290 294 298 315 320 321 320 318 317 316 315 316 317 319 320 322 321 322 321 320 318 315 313 312 312 311 308 305
294 295 292 290 287 283 284 282 282 284 282 283 285 286 287 288 289 290 292 292 292 292 290 293 300 307 318 319 318 317 316 316 316 315 316 317 317 318 319 319 317 315 315 313 312 311 310 309 308
297 292 290 286 284 279 286 284 282 283 284 284 285 286 287 290 291 293 294 295 295 295 295 294 297 300 302 314 316 315 314 314 313 313 313 314 314 314 316 316 315 314 313 313 311 311 310 307 308
290 287 281 280 278 279 286 283 286 283 284 285 285 285 288 291 291 292 292 292 294 295 296 297 297 299 301 302 309 312 313 313 313 313 312 313 312 312 314 315 314 314 313 314 313 310 309 307 307
288 288 281 276 278 281 286 282 281 285 286 286 287 289 291 291 292 292 293 293 294 296 297 297 298 299 301 302 302 304 310 311 313 313 313 313 314 313 313 314 314 314 314 313 313 311 309 307 307
288 284 288 283 283 281 284 279 281 284 284 287 288 289 290 290 291 292 293 294 294 295 296 297 298 299 300 301 301 300 301 304 306 308 314 314 314 314 313 313 313 313 313 312 312 311 309 308 307
290 293 286 286 278 278 281 281 279 279 281 286 286 287 289 291 292 292 293 293 294 295 296 297 297 297 300 300 299 299 299 299 300 302 306 310 313 313 313 312 312 312 311 311 311 310 309 307 306
287 287 288 288 285 279 278 279 281 281 284 285 287 289 289 290 291 291 292 293 294 296 297 297 297 297 297 299 298 298 298 299 299 300 305 307 309 311 312 312 312 311 310 310 309 309 309 307 305
286 286 289 283 281 281 278 279 285 286 287 287 288 289 289 289 290 291 291 293 295 295 295 297 298 296 295 296 296 295 294 294 294 296 299 302 303 306 309 311 311 311 311 310 309 308 308 306 305
Wind_Speed
6 4 3 5 6 6 4 6 3 5 5 2 2 3 6 4 6 6 3 7 6 11 12 14 17 18 17 16 15 14 17 18 19 19 19 20 20 19 18 17 15 16 18 19 19 19 18 18 17
5 3 5 3 7 3 6 4 5 4 6 9 4 3 3 2 1 0 3 6 8 12 10 12 16 17 18 16 16 16 15 16 18 19 19 19 20 19 19 18 17 17 18 18 17 18 18 18 15
5 4 4 5 4 5 4 4 7 12 9 5 4 1 3 4 1 4 6 11 10 10 11 12 17 17 19 18 18 18 18 17 17 18 19 20 20 19 19 17 16 17 18 18 17 16 15 14 14
3 4 5 5 4 6 5 8 6 11 7 2 2 3 2 1 3 5 6 11 13 10 9 12 17 18 18 19 19 21 20 18 18 19 19 19 20 20 19 17 16 17 16 18 17 15 14 14 15
5 3 4 1 5 5 6 6 4 5 6 4 5 4 3 4 4 5 6 6 11 9 7 11 14 21 22 19 18 18 19 21 21 20 20 21 20 19 17 16 15 16 17 17 15 15 14 14 16
4 3 4 3 4 5 7 6 2 4 4 11 4 2 5 3 2 4 5 6 6 10 8 10 15 21 22 17 17 16 17 18 19 19 19 20 20 19 18 16 15 15 14 14 13 12 13 14 15
7 4 4 3 4 5 5 2 4 5 5 8 2 3 6 6 1 5 4 5 5 5 6 6 8 11 16 15 15 14 14 16 16 17 17 18 18 17 17 18 18 18 16 13 11 12 10 14 14
6 5 4 4 3 6 4 4 2 3 6 5 5 5 6 4 8 8 6 5 4 4 5 7 9 9 12 11 17 18 14 16 17 17 18 17 17 17 18 18 20 18 14 15 13 11 13 16 14
4 4 2 5 4 6 3 6 2 3 5 4 4 4 6 2 8 7 4 2 4 5 4 6 12 10 10 11 12 15 18 17 17 16 15 12 9 12 16 12 19 20 19 15 13 12 15 20 17
4 4 9 7 5 5 5 4 9 6 12 5 8 4 0 4 6 10 9 12 11 12 12 10 13 13 11 9 11 11 11 9 9 10 11 9 9 9 10 12 20 21 20 18 16 15 18 18 9
4 6 5 5 7 6 6 9 4 2 7 6 11 12 2 6 8 10 12 11 18 14 12 16 15 16 14 10 7 6 6 7 8 11 9 8 6 6 5 5 7 7 14 8 9 14 10 11 8
2 7 5 5 4 2 4 4 7 8 14 10 12 8 7 9 11 13 13 13 8 13 16 15 14 14 13 10 7 7 8 7 7 9 12 8 7 9 7 6 6 9 6 8 8 7 8 8 8
4 5 6 6 8 6 4 8 9 14 12 8 11 9 11 12 12 12 15 9 8 11 14 18 15 15 13 13 9 8 9 8 9 10 12 10 9 8 8 8 7 7 8 9 9 9 9 10 9
3 5 7 6 8 6 6 8 6 5 2 9 6 9 8 8 11 9 5 8 8 13 14 13 16 15 13 14 15 10 9 8 8 8 10 13 10 9 8 8 9 9 8 9 9 11 11 10 10
4 7 8 5 3 4 5 7 6 9 7 10 9 9 10 13 14 10 8 9 8 11 8 14 15 14 15 15 13 10 9 8 8 9 12 13 11 12 11 8 7 8 8 8 7 8 9 9 8
5 2 6 5 4 3 6 12 6 10 7 11 12 11 9 7 6 7 8 8 7 9 12 10 12 15 16 16 12 10 9 9 7 7 7 11 11 11 9 8 5 6 7 8 9 10 10 9 10
5 4 6 9 5 4 2 9 14 16 8 7 7 8 8 8 13 10 10 12 11 9 8 10 12 15 15 12 9 9 8 7 7 7 8 11 11 11 10 7 5 3 6 4 8 10 12 12 9
3 4 6 6 4 7 16 15 15 8 7 6 7 8 8 9 10 10 11 12 9 8 4 2 6 12 12 9 7 6 6 7 8 9 9 10 10 14 11 8 10 10 7 9 2 3 7 10 12
2 3 10 12 12 3 14 14 14 2 6 6 6 7 8 8 9 8 10 11 12 13 13 9 3 3 4 6 7 7 8 7 6 8 9 9 10 11 9 7 10 10 12 15 16 7 2 4 11
5 6 12 11 11 6 10 11 8 1 4 2 4 5 6 7 9 11 11 12 12 12 11 10 8 10 6 1 2 3 3 2 2 2 3 4 8 7 8 8 9 12 10 13 17 17 9 3 10
4 6 5 10 6 4 7 7 6 1 3 2 3 3 4 6 8 10 12 9 10 12 12 9 8 7 6 5 2 3 3 1 2 1 2 2 4 8 12 12 12 13 12 13 19 19 22 11 11
5 9 12 7 2 5 3 16 5 8 7 2 5 7 7 8 7 7 9 10 9 8 8 8 7 6 4 4 4 1 2 1 3 2 2 2 5 8 13 14 14 13 10 14 14 13 15 13 13
11 5 8 5 6 2 6 6 3 8 4 3 5 7 8 8 8 9 9 9 8 9 8 7 7 7 6 3 3 4 5 3 2 2 4 5 4 5 7 8 10 10 8 9 15 14 14 12 13
5 6 5 4 2 6 14 11 2 3 6 5 4 6 7 7 8 9 8 10 9 9 8 9 10 7 7 5 4 3 4 6 3 5 6 4 4 4 5 8 10 13 12 15 15 17 18 14 12
2 5 6 5 1 7 2 3 6 6 9 8 6 6 7 7 8 9 9 9 9 9 10 9 8 9 7 7 7 5 6 6 7 7 4 3 3 4 9 8 8 8 11 12 15 16 16 16 14
6 8 6 8 4 7 4 8 2 5 7 8 7 7 8 7 7 6 9 11 12 12 13 14 14 11 8 6 6 5 7 5 7 6 5 5 7 8 7 10 13 14 14 11 11 11 14 16 14
1 4 2 5 2 8 5 4 5 5 6 6 7 9 10 7 9 12 15 14 15 15 15 16 18 15 11 6 4 5 5 5 5 7 9 7 7 7 9 10 11 13 13 13 13 10 14 15 17
6 3 1 2 6 9 6 6 4 4 5 6 13 13 8 9 12 13 13 14 13 14 12 15 15 15 13 7 5 5 6 6 6 5 8 9 9 8 8 10 12 10 11 11 12 11 12 14 13
3 5 3 1 4 5 9 3 3 10 8 11 13 9 10 11 11 13 13 12 11 13 11 12 13 12 8 5 5 5 5 6 5 5 6 6 7 9 10 12 12 14 13 14 13 14 13 15 15
3 2 3 5 3 3 2 7 10 6 6 9 6 8 10 10 12 12 13 12 12 16 14 12 12 10 7 6 6 5 4 5 5 5 5 5 6 7 8 12 13 14 16 16 18 18 16 17 18
Wind_Direction
100 84 73 43 61 62 281 267 235 285 305 210 213 173 202 146 165 207 292 185 145 148 151 154 152 150 148 149 143 135 131 134 133 135 135 135 137 140 141 141 142 140 137 136 136 133 135 133 131
131 90 47 82 84 62 267 263 258 224 245 306 279 198 39 293 131 311 129 184 162 151 153 151 152 151 150 152 147 143 140 139 139 139 139 142 146 148 146 147 150 144 139 139 139 140 139 140 139
115 56 80 86 104 185 216 264 273 285 265 233 298 82 123 257 222 204 219 154 134 151 158 158 154 155 156 158 156 153 151 149 148 147 149 151 152 152 152 153 148 141 142 144 143 142 140 137 135
111 20 41 83 220 255 207 255 267 312 349 81 255 293 293 125 249 225 149 151 140 151 157 159 159 160 160 160 163 160 158 157 157 157 158 158 159 160 157 151 146 143 143 143 144 143 144 136 134
39 58 68 42 255 270 247 261 259 296 284 301 173 275 266 304 6 95 115 142 146 150 152 162 160 170 175 169 169 163 161 165 165 163 164 164 164 162 155 148 144 141 146 144 149 147 142 138 134
47 101 74 243 241 251 266 238 293 308 309 324 33 11 267 306 132 139 135 151 154 155 154 168 172 175 179 172 171 169 170 167 165 166 166 166 166 160 152 149 141 136 137 142 143 144 142 140 136
120 92 207 220 252 289 246 183 346 317 323 339 135 326 288 324 232 129 143 127 127 139 149 159 174 181 182 176 174 173 173 174 168 168 168 168 166 160 157 150 140 136 139 141 143 140 142 140 133
110 99 158 243 231 275 276 346 268 351 297 291 133 267 277 241 137 103 75 72 98 143 162 165 176 182 188 188 186 186 182 178 176 173 173 168 163 159 156 150 142 139 144 149 149 141 145 141 132
134 68 207 239 182 243 280 358 238 284 266 316 249 205 251 75 122 106 117 120 182 200 201 185 189 191 193 195 193 188 191 186 179 176 172 157 164 162 158 158 146 145 151 155 150 144 142 145 128
119 147 218 210 209 266 288 307 317 347 315 291 301 223 94 147 190 163 183 192 200 201 197 194 196 195 193 198 199 198 198 194 190 185 177 173 166 161 159 163 158 155 155 154 146 146 149 144 138
170 210 220 233 226 253 284 300 225 244 292 226 286 292 272 169 223 204 207 200 205 205 201 198 195 195 195 193 190 196 197 190 194 192 182 166 157 156 170 166 150 152 150 143 134 142 156 156 140
230 243 223 278 251 300 266 298 304 208 262 253 242 261 287 217 215 217 216 214 191 191 207 204 199 198 201 203 196 194 196 190 192 193 182 173 174 173 179 184 168 154 159 146 141 141 133 132 123
203 270 285 280 302 264 260 245 245 260 253 261 266 273 250 257 240 227 224 223 202 206 200 204 194 195 193 200 198 200 195 194 193 197 186 179 185 186 173 176 176 171 171 167 150 144 138 135 131
282 271 269 278 259 249 237 279 156 279 322 301 326 304 287 275 266 280 287 264 230 226 211 193 199 200 192 201 205 201 200 193 186 189 191 192 185 184 189 184 182 162 178 181 161 158 146 141 140
282 317 317 251 256 252 171 299 227 263 327 312 320 326 28 36 25 5 338 304 254 239 208 203 203 198 199 202 206 206 199 188 194 192 194 189 181 187 185 194 193 175 161 170 149 145 135 136 134
341 32 336 298 357 285 139 276 260 302 1 320 338 2 22 41 26 340 321 305 299 265 210 200 199 202 205 205 200 203 198 194 195 189 180 188 182 193 189 191 193 184 149 163 172 159 148 147 146
355 258 282 327 6 344 48 291 294 307 360 326 356 13 22 11 21 9 345 355 333 294 249 202 198 204 209 216 209 205 201 192 209 197 198 188 183 187 187 166 179 134 151 176 186 170 162 152 145
241 272 269 248 280 353 295 267 282 331 46 19 28 16 17 14 0 346 2 5 0 6 358 281 202 215 206 204 204 187 196 209 203 208 209 186 202 201 196 170 160 150 167 136 118 231 166 157 141
194 245 255 269 265 237 260 267 269 5 64 40 39 27 16 4 319 336 359 360 14 27 33 31 75 194 178 200 201 192 199 220 225 223 212 180 198 205 219 188 155 160 173 155 143 159 302 163 135
227 253 272 280 274 163 267 251 258 24 40 53 61 28 15 0 355 357 357 3 7 14 18 43 51 38 29 339 107 116 99 298 293 287 249 189 178 179 196 188 172 175 174 165 168 161 145 145 185
238 218 245 250 323 274 292 273 180 142 151 135 35 1 19 356 352 353 355 353 5 9 357 5 10 40 45 69 45 55 81 295 29 340 277 217 178 189 191 185 189 188 198 186 180 175 169 156 208
239 247 238 247 349 247 75 291 201 175 171 110 31 22 8 8 1 351 351 353 353 345 345 357 354 12 65 82 45 36 74 179 206 196 211 208 210 201 204 194 195 197 191 181 176 172 173 163 180
266 231 240 228 225 308 196 251 66 115 171 108 35 25 13 6 2 360 357 349 340 355 354 349 358 11 349 339 147 149 205 219 233 252 239 216 183 189 212 187 185 172 174 190 170 170 170 175 188
309 306 290 52 154 261 215 193 47 162 152 119 45 22 14 4 353 357 354 351 348 349 353 346 348 339 348 337 316 261 254 258 248 231 232 203 162 173 192 179 177 174 181 181 174 181 178 171 180
88 39 316 314 335 238 15 211 294 93 85 108 80 19 6 360 357 349 349 342 328 336 334 332 331 312 315 314 309 293 260 242 256 240 240 194 175 186 201 174 175 182 195 192 194 182 186 181 178
210 167 186 272 238 267 191 249 89 99 88 72 56 27 4 334 330 330 335 337 333 325 327 321 319 305 296 289 293 299 281 277 249 255 244 226 214 209 190 199 189 192 195 194 198 182 188 180 178
350 200 265 292 74 291 209 98 346 82 71 68 52 3 332 319 329 341 339 333 328 316 309 310 301 299 290 272 286 305 274 274 273 265 253 249 234 224 195 201 208 201 197 189 188 198 191 183 184
200 201 305 49 264 250 235 219 166 114 90 47 354 333 325 334 331 323 316 309 309 299 301 295 291 283 274 304 312 303 305 303 294 278 265 254 241 222 224 204 198 202 196 191 194 191 198 187 189
228 212 122 245 219 259 288 258 131 92 51 1 323 311 299 305 304 300 293 289 293 297 290 274 274 267 290 287 298 308 314 310 313 299 296 282 263 250 232 228 226 205 200 182 202 197 193 197 194
70 347 128 225 225 218 257 265 156 126 17 341 295 302 306 299 296 300 303 297 310 312 302 294 286 292 298 299 295 300 304 320 318 322 322 329 316 311 276 234 221 224 215 200 201 205 198 190 198